Aurora, NE

4:45 PM CST on January 21, 2017 (GMT -0600)
Hamilton County EMA | | Change Station
Active Advisory: Flood Warning

Elev 1791 ft 40.87 °N, 98.00 °W | Updated 11 minutes ago

Clear
Clear
51.4 °F
Feels Like 51.4 °F
N
0.0
Wind Variable Wind from SW
Gusts 2.0 mph

Today
High -- | Low -- °F
--% Chance of Precip.
Yesterday
High -- | Low -- °F
Precip. -- in
Pressure 29.45 in
Visibility 10.0 miles
Clouds Clear
Dew Point 42 °F
Humidity 70%
Rainfall 0.00 in
Snow Depth Not available.
7:50 AM 5:36 PM
Waning Crescent, 31% visible
METAR KAUH 212235Z AUTO 00000KT 10SM CLR 10/04 A2945 RMK AO2 T00960035
Pressure 29.45 in
Visibility 10.0 miles
Clouds Clear
Dew Point 42 °F
Humidity 70%
Rainfall 0.00 in
Snow Depth Not available.
7:50 AM 5:36 PM
Waning Crescent, 31% visible
METAR KAUH 212235Z AUTO 00000KT 10SM CLR 10/04 A2945 RMK AO2 T00960035

Get Your Daily Forecast Email!

Thanks for signing up!

Be on the lookout for a verification email in your inbox.

You'll start receiving the daily forecast at 8 AM.

×

10-Day Weather Forecast

Almanac

Astronomy

Jan. 21, 2017 Rise Set
Actual Time
Civil Twilight
Nautical Twilight
Astronomical Twilight
Moon
Length of Visible Light
Length of Day
Tomorrow will be .
, % of the Moon is Illuminated

Today's Extremes

State Highs State Lows

Community

WunderPhotos

Upload Photos

1,962,540 photos uploaded!

WunderBlog® & News

Nearby

Air Quality

  Air Quality AQ Index Pollutant
Not available.

Snow Depth

Station Depth Elevation

Earthquake Activity

City Distance Mag. Time & Date
Minimum magnitude displayed is 2.5.

Coastal Water Temperatures

Place Temperature

Stations

Nearby Weather Stations

Station Location Temp. Windchill Dew Point Humidity Wind Precip. Elev Updated Type
                   

Watches & Warnings

Flood Warning
Issued: 8:34 AM CST Jan. 21, 2017 – National Weather Service

The Flood Warning continues for
the Platte River near Grand Island.
* At 8:15 am Saturday the stage was 6.4 feet.
* Flood stage is 6.5 feet.
* Minor flooding is forecast.
* Forecast... rise above flood stage this afternoon and reach
6.6 feet this evening. The river will fall below
flood stage Sunday afternoon.
* At 6.5 feet... rural farms and pasturelands flood.


Lat... Lon 4083 9839 4121 9782 4116 9782 4079 9833